Location: Domont
(49.0278°N, 2.3264°E)
Time: 12:29:41
(UTC+00:00)

DX 1 - Pass Details

Date: 02 July 2022
Orbit: 617 x 629 km, 98.4° (Epoch: 11 August)

Event Time Altitude Azimuth Distance (km) Brightness Sun altitude
Rises 22:53:45 0° 358° (N) 2,933 ? -16.7°
Reaches altitude 10° 22:57:11 10° 329° (NNW) 2,018 ? -16.8°
Maximum altitude 22:58:58 12° 305° (NW) 1,859 ? -16.9°
Drops below altitude 10° 23:00:45 10° 281° (W) 2,010 ? -17.0°
Sets 23:04:10 0° 252° (WSW) 2,909 ? -17.1°
